Location: Bieg
(49.3499°N, 10.3835°E)
Time: 11:29:59
(UTC+00:00)

ADEOS II - Pass Details

Date: 23 May 2024
Orbit: 796 x 798 km, 98.7° (Epoch: 19 June)

Event Time Altitude Azimuth Distance (km) Brightness Sun altitude
Rises 01:12:15 0° 19° (NNE) 3,313 7.1 -15.3°
Reaches altitude 10° 01:14:42 10° 26° (NNE) 2,378 6.0 -15.1°
Maximum altitude 01:19:44 45° 99° (E) 1,084 2.9 -14.7°
Enters shadow 01:24:18 12° 170° (S) 2,211 3.9 -14.4°
